[Date Prev][Date Next][Thread Prev][Thread Next] - [Date Index][Thread Index][Author Index]
ISS KEPS - DAY 224
- Subject: [sarex] ISS KEPS - DAY 224
- From: Arthur Rowe <azrowe80@xxxxxxxxxxx>
- Date: Sun, 12 Aug 2007 10:45:11 -0400
ISS (ZARYA)
1 25544U 98067A 07224.37943946 .00010987 00000-0 72407-4 0 7649
2 25544 51.6328 173.7167 0008196 233.3339 266.7720 15.76228623499643
----
Sent via sarex@amsat.org. Opinions expressed are those of the author.
Not an AMSAT member? Join now to support the amateur satellite program!
Subscription settings: http://amsat.org/mailman/listinfo/sarex
AMSAT Home